Regional Weather Roundup
Issued by NWS

Home | Current Version | Previous Version | Graphics & Text | Print | Product List | Glossary On
Versions: 1 2 3 4 5 6 7 8 9 10 11 12 13 14 15 16 17 18 19 20 21 22 23 24 25 26
000
ASUS45 KTFX 261010
RWRMT
MONTANA REGIONAL WEATHER ROUNDUP
NATIONAL WEATHER SERVICE GREAT FALLS MT
400 AM MDT THU MAY 26 2016

NOTE: "FAIR" INDICATES FEW OR NO CLOUDS BELOW 12000 FEET WITH NO
SIGNIFICANT WEATHER AND/OR OBSTRUCTIONS TO VISIBILITY.

MTZ001>007-043-261100-
WEST OF THE DIVIDE

CITY           SKY/WX    TMP DP  RH WIND       PRES   REMARKS
KALISPELL      CLOUDY    48  48 100 CALM      29.99S
MISSOULA       CLOUDY    51  46  83 CALM      30.04R
BUTTE          CLEAR     37  34  89 SE5       30.06S
MULLAN PASS    CLOUDY    42  38  85 VRB5      30.08S
ANACONDA         N/A     50  37  62 W5        30.05R
DEER LODGE       N/A     46  43  87 CALM      30.05S
EUREKA           N/A     54  46  76 SE6       29.98S
HAMILTON         N/A     52  41  66 S5        30.04S
LIBBY            N/A     48  46  93 E3        30.00S
$$

MTZ008-052>055-261100-
SOUTHWEST MONTANA

CITY           SKY/WX    TMP DP  RH WIND       PRES   REMARKS
BOZEMAN        CLOUDY    49  40  71 SW6       30.01R
DILLON         CLEAR     43  33  68 S9        30.04R
ENNIS          CLOUDY    39  36  87 CALM      30.09S
$$

MTZ009-010-012-014-046-048-049-054-261100-
EAST SLOPES AND CENTRAL MONTANA

CITY           SKY/WX    TMP DP  RH WIND       PRES   REMARKS
CUT BANK       MOCLDY    41  40  96 NW7       29.95R
GREAT FALLS    CLOUDY    46  42  86 SW7       29.94S
MALMSTROM AFB  CLOUDY    48  44  85 W8        29.94R
HELENA         CLOUDY    49  41  74 VRB3      29.98R
CHOTEAU          N/A     46  43  87 CALM      29.95S
$$

MTZ011-013-016-021-045-047-050-051-261100-
NORTH CENTRAL MONTANA

CITY           SKY/WX    TMP DP  RH WIND       PRES   REMARKS
HAVRE            N/A    N/A N/A N/A MISG      29.91R
LEWISTOWN      MOCLDY    45  40  82 SW7       29.93S
N BAR RANCH      N/A     41  39  93 NW7       29.95R
CHINOOK          N/A     45  43  93 SW5       29.90S
$$

MTZ017>020-022>027-061-062-261100-
NORTHEAST MONTANA

CITY           SKY/WX    TMP DP  RH WIND       PRES   REMARKS
GLASGOW        CLEAR     43  41  93 W5        29.83R
JORDAN           N/A     50  45  83 W7        29.85F
SIDNEY         PTCLDY    46  44  93 SW7       29.82S
WOLF POINT     CLOUDY    43  41  93 CALM      29.82F
PLENTYWOOD       N/A     50  50 100 W9        29.80S
$$

MTZ028>42-056>058-261100-
SOUTHCENTRAL AND SOUTHEAST MONTANA

CITY           SKY/WX    TMP DP  RH WIND       PRES   REMARKS
BAKER          PTCLDY    47  43  86 W9        29.86S
BILLINGS       PTCLDY    50  42  74 W12       29.93S
LIVINGSTON     CLOUDY    47  39  74 W8        29.98S
MILES CITY     PTCLDY    49  44  83 W10       29.87R
FORSYTH          N/A     50  50 100 W5        29.87F
$$

REGIONAL REPORTS...DAKOTAS

CITY           SKY/WX    TMP DP  RH WIND       PRES   REMARKS
WILLISTON      FOG       47  46  97 NW6       29.80F VSB 3/4
MINOT          CLOUDY    58  55  90 SW8       29.74R
DICKINSON      CLEAR     42  38  85 W3        29.81R
BEACH          CLOUDY    46  46 100 W7        29.86S
CROSBY         CLOUDY    52  52 100 W3        29.79S FOG
WATFORD CITY     N/A     39  39 100 SW3       29.81S FOG
BISMARCK       CLEAR     46  45  96 SW3       29.80S
GRAND FORKS    CLOUDY    57  55  93 S8        29.71R
FARGO          PTCLDY    51  49  92 W6        29.73F FOG
BUFFALO SD       N/A     42  38  85 CALM      29.80S
RAPID CITY     CLEAR     46  42  86 W8        29.88S
$$

REGIONAL REPORTS...WYOMING/IDAHO/WASHINGTON

CITY           SKY/WX    TMP DP  RH WIND       PRES   REMARKS
GILLETTE       CLEAR     44  40  85 W6        29.93S
SHERIDAN       CLOUDY    50  41  71 W13       29.94F
BUFFALO WY     CLEAR     46  38  73 NW10      29.96R
CODY           CLOUDY    45  36  70 NW3       29.99S
YELLOWSTONE LA   N/A     31  29  92 CALM      30.12S
IDAHO FALLS    CLEAR     39  37  92 CALM      30.05S
SALMON         CLEAR     39  36  87 CALM      30.05S
BOISE          CLEAR     51  41  68 S6        30.01S
SPOKANE        MOCLDY    53  44  71 S15G23    30.01R
$$

REGIONAL REPORTS...ALBERTA

CITY           SKY/WX    TMP DP  RH WIND       PRES   REMARKS
EDMONTON       CLOUDY    54  50  87 W2        29.89S
CALGARY        PTCLDY    48  45  87 N5        29.94S
LETHBRIDGE     PTCLDY    46  43  87 N2        29.93R
MEDICINE HAT   CLEAR     43  43 100 S3        29.92R
WATERTON GATE    N/A     50  45  81 SW7         N/A
CARDSTON         N/A     52  46  82 W8          N/A
MILK RIVER       N/A     43  39  87 NW7         N/A
ONEFOUR          N/A     43  41  93 NW9         N/A
$$

REGIONAL REPORTS...SASKATCHEWAN

CITY           SKY/WX    TMP DP  RH WIND       PRES   REMARKS
SWIFT CURRENT  LGT RAIN  50  50 100 N7        29.88S FOG
REGINA         LGT RAIN  52  52 100 N12       29.83S
SASKATOON      MOCLDY    54  50  87 N6        29.89R
CYPRESS HILLS    N/A     43  41  93 NW2         N/A
VAL MARIE        N/A     46  45  93 N3          N/A
ROCKGLEN         N/A     48  48 100 NW7         N/A
$$




USA.gov is the U.S. government's official web portal to all federal, state and local government web resources and services.